Simultaneous Nadir Overpasses (SNOs) Predictions

Prediction of SNOs between NPP and TERRA Satellite Orbit:

Table of predicted SNOs for the next 14.0 days since TLE Epoch: 1/25/2013
Index Date (NPP) Time (NPP) Lat,Lon (NPP) SZA (NPP ) Date (TERRA) Time (TERRA) Lat,Lon (TERRA) SZA (TERRA ) Distance(km) Time Diff (sec)
1 01/26/2013 12:18:42 -68.21, 173.66 93.25 01/26/2013 12:19:18 -68.21, 173.70 93.26 1.65 36
2 01/26/2013 13:09:26 68.07, -18.86 86.60 01/26/2013 13:08:46 68.04, -18.85 86.58 3.00 40
3 01/29/2013 03:45:03 68.51, 121.71 86.38 01/29/2013 03:46:14 68.45, 122.24 86.29 22.37 71
4 01/29/2013 04:35:40 -68.16, -70.52 94.00 01/29/2013 04:35:47 -68.17, -70.46 93.99 2.92 7
5 01/29/2013 05:26:24 68.02, 96.96 85.86 01/29/2013 05:25:15 68.00, 96.99 85.84 2.35 69
6 01/31/2013 20:01:56 68.24,-122.19 85.37 01/31/2013 20:02:45 68.23,-122.14 85.35 2.46 49
7 01/31/2013 20:52:37 -68.11, 45.30 94.79 01/31/2013 20:52:16 -68.07, 45.31 94.82 3.53 21
8 01/31/2013 21:43:05 67.11,-146.18 84.18 01/31/2013 21:41:57 67.17,-148.07 84.31 81.89 68
9 02/03/2013 11:28:26 -69.18,-174.99 94.43 02/03/2013 11:29:33 -69.08,-172.85 94.60 85.45 67
10 02/03/2013 12:18:54 68.20, -6.37 84.55 02/03/2013 12:19:14 68.18, -6.31 84.53 2.83 20
11 02/03/2013 13:09:35 -68.05, 161.13 95.62 02/03/2013 13:08:45 -68.03, 161.14 95.64 3.13 50
12 02/06/2013 03:45:08 -68.27, -58.02 96.18 02/06/2013 03:46:16 -68.25, -58.00 96.21 2.63 68
13 02/06/2013 04:35:52 68.15, 109.45
